CORVUS BC3 (43118 NORAD) Tracking and Keplerian Element Data

This shows tracking and keplerian element data for the satellite.

Feedback or suggestion? Click here.




ElementValue
Catalog43118
NameCORVUS BC3
Epoch Orbit7583
Epoch Day145.75317905
Epoch Year2019
RAAN213.1874
Inclination97.4878
Eccentricity0.0009858
Argument of Perigee345.1397
Mean Anonmoly14.9548
Mean Motion15.22805656
Decay Rate4.44E-06
L11 43118U 18004H 19145.75317905 .00000444 00000-0 22038-4 0 9998
L22 43118 97.4878 213.1874 0009858 345.1397 14.9548 15.22805656 75834

Live tracking and technical data element details for CORVUS BC3 (NORAD 43118). CORVUS BC3 can be tracked NOW for your location showing map with azimuth and elevation plus other details from your city location.

Track the satellite on the map from your city or location and see movement details for azimuth, elevation, latitude, longitude, range, height, and movement on the map or in text.







IsCatalogInMostPopularTable: catalog: 43118, numindb: 224
Update: records affected: 1



GetName: 43118 CORVUS BC3

Hit Count: updated at: Mon, 27 May 2019 02:56:46 GMT